Weather History for Delta, CO

Change the Weather History Date:

Sunday, May 4, 2014

  Actual Average (KMTJ) Record (KMTJ)
Temperature  
Mean Temperature 66 °F 54 °F  
Max Temperature 84 °F 69 °F 87 °F (2000)
Min Temperature 49 °F 40 °F 32 °F (2001)
Degree Days  
Heating Degree Days 0 11  
Month to date heating degree days 45  
Since 1 July heating degree days 5983  
Cooling Degree Days 2 0  
Month to date cooling degree days 0  
Year to date cooling degree days 0  
Growing Degree Days 16 (Base 50)    
Moisture  
Dew Point 18 °F    
Average Humidity 17    
Maximum Humidity 41    
Minimum Humidity 6    
Precipitation  
Precipitation 0.00 in 0.05 in 0.14 in (1999)
Month to date precipitation 0.19  
Year to date precipitation 3.41  
Sea Level Pressure  
Sea Level Pressure 29.98 in    
Wind  
Wind Speed 10 mph (ENE)    
Max Wind Speed 25 mph    
Max Gust Speed 36 mph    
Visibility 10 miles    
Events      
T = Trace of Precipitation, MM = Missing Value Source: NWS Daily Summary

Daily Weather History Graph

Daily Weather History Graph

Search for Another Location

Airport:

Trip Planner

Search our weather history database for the weather conditions in past years. The results will help you decide how hot, cold, wet, or windy it might be!

Date:

Astronomy

May. 04, 2014 Rise Set
Actual Time 6:11 AM MDT 8:07 PM MDT
Civil Twilight 5:42 AM MDT 8:36 PM MDT
Nautical Twilight 5:06 AM MDT 9:12 PM MDT
Astronomical Twilight 4:29 AM MDT 9:50 PM MDT
Moon 10:38 AM MDT (5/4) 12:14 AM MDT (5/4)
Length of Visible Light 14h 54m
Length of Day
13h 56m
Waxing Crescent, 28% of the Moon is Illuminated
May 4
Waxing Crescent
May 6
First Quarter
May 14
Full
May 21
Last Quarter
May 28
New

Hourly Weather History & Observations

Time (MDT) Temp. Dew Point Humidity Pressure Visibility Wind Dir Wind Speed Gust Speed Precip Events Conditions
12:15 AM 60.8 °F 24.8 °F 25% 30.00 in 10.0 mi North 11.5 mph - N/A   Clear
12:35 AM 61.0 °F 25.2 °F 25% 30.00 in 10.0 mi North 10.4 mph - N/A   Clear
12:55 AM 61.3 °F 24.4 °F 24% 29.99 in 10.0 mi North 9.2 mph - N/A   Clear
1:15 AM 61.0 °F 25.2 °F 25% 29.99 in 10.0 mi North 9.2 mph - N/A   Clear
1:35 AM 60.8 °F 27.0 °F 28% 29.99 in 10.0 mi North 10.4 mph - N/A   Clear
1:55 AM 60.4 °F 25.7 °F 27% 29.98 in 10.0 mi North 9.2 mph - N/A   Clear
2:15 AM 59.7 °F 21.7 °F 23% 29.99 in 10.0 mi ENE 6.9 mph - N/A   Clear
2:35 AM 58.3 °F 23.0 °F 26% 29.99 in 10.0 mi ENE 6.9 mph - N/A   Clear
2:55 AM 58.3 °F 22.6 °F 25% 29.99 in 10.0 mi ENE 8.1 mph - N/A   Clear
3:15 AM 57.9 °F 22.8 °F 26% 29.99 in 10.0 mi East 5.8 mph - N/A   Clear
3:35 AM 55.0 °F 26.6 °F 33% 30.00 in 10.0 mi Calm Calm - N/A   Clear
3:55 AM 56.1 °F 24.1 °F 29% 30.00 in 10.0 mi NE 5.8 mph - N/A   Clear
4:15 AM 55.6 °F 23.5 °F 29% 30.00 in 10.0 mi NE 8.1 mph - N/A   Clear
4:35 AM 56.5 °F 22.8 °F 27% 30.00 in 10.0 mi East 4.6 mph - N/A   Clear
4:55 AM 54.0 °F 23.9 °F 31% 30.02 in 10.0 mi ENE 3.5 mph - N/A   Clear
5:15 AM 53.1 °F 25.9 °F 35% 30.02 in 10.0 mi North 5.8 mph - N/A   Clear
5:35 AM 50.7 °F 27.9 °F 41% 30.03 in 10.0 mi NNE 3.5 mph - N/A   Clear
5:55 AM 50.4 °F 26.6 °F 40% 30.03 in 10.0 mi NNE 5.8 mph - N/A   Clear
6:15 AM 49.8 °F 26.6 °F 41% 30.03 in 10.0 mi NNE 6.9 mph - N/A   Clear
6:35 AM 50.5 °F 22.6 °F 34% 30.04 in 10.0 mi NE 5.8 mph - N/A   Clear
6:55 AM 50.9 °F 22.6 °F 33% 30.04 in 10.0 mi NE 8.1 mph - N/A   Clear
7:15 AM 55.2 °F 24.1 °F 30% 30.05 in 10.0 mi NE 4.6 mph - N/A   Clear
7:35 AM 59.2 °F 23.7 °F 26% 30.05 in 10.0 mi ENE 5.8 mph - N/A   Clear
7:55 AM 61.5 °F 23.2 °F 23% 30.05 in 10.0 mi ENE 6.9 mph - N/A   Clear
8:15 AM 63.3 °F 25.3 °F 24% 30.06 in 10.0 mi ENE 6.9 mph - N/A   Clear
8:35 AM 66.0 °F 25.3 °F 22% 30.05 in 10.0 mi ENE 8.1 mph - N/A   Clear
8:55 AM 68.2 °F 25.9 °F 20% 30.05 in 10.0 mi ENE 8.1 mph - N/A   Clear
9:15 AM 68.9 °F 22.1 °F 17% 30.05 in 10.0 mi East 8.1 mph - N/A   Clear
9:35 AM 70.3 °F 21.4 °F 16% 30.05 in 10.0 mi ESE 5.8 mph - N/A   Clear
9:55 AM 71.6 °F 17.8 °F 13% 30.04 in 10.0 mi ENE 3.5 mph - N/A   Clear
10:15 AM 72.1 °F 17.1 °F 12% 30.04 in 10.0 mi Calm Calm - N/A   Clear
10:35 AM 73.9 °F 18.3 °F 12% 30.03 in 10.0 mi East 3.5 mph - N/A   Clear
10:55 AM 76.6 °F 19.0 °F 12% 30.03 in 10.0 mi ESE 3.5 mph - N/A   Clear
11:15 AM 78.8 °F 19.0 °F 11% 30.02 in 10.0 mi Calm Calm - N/A   Clear
11:35 AM 82.0 °F 16.0 °F 8% 30.02 in 10.0 mi SW 20.7 mph 26.5 mph N/A   Clear
11:55 AM 82.2 °F 15.6 °F 8% 30.01 in 10.0 mi SW 24.2 mph 29.9 mph N/A   Clear
12:15 PM 82.9 °F 14.5 °F 8% 30.00 in 7.0 mi SSW 24.2 mph 31.1 mph N/A   Clear
12:35 PM 82.8 °F 13.8 °F 8% 29.99 in 10.0 mi SW 21.9 mph 31.1 mph N/A   Clear
12:55 PM 82.6 °F 13.3 °F 7% 29.98 in 10.0 mi SW 25.3 mph 32.2 mph N/A   Clear
1:15 PM 83.3 °F 14.0 °F 7% 29.97 in 10.0 mi SSW 24.2 mph 35.7 mph N/A   Clear
1:35 PM 83.1 °F 14.0 °F 8% 29.97 in 10.0 mi SW 21.9 mph 29.9 mph N/A   Clear
1:55 PM 82.9 °F 13.1 °F 7% 29.97 in 7.0 mi SW 19.6 mph 28.8 mph N/A   Clear
2:15 PM 80.4 °F 12.6 °F 8% 29.96 in 10.0 mi SW 25.3 mph 33.4 mph N/A   Clear
2:35 PM 82.0 °F 13.1 °F 7% 29.97 in 10.0 mi SW 18.4 mph 34.5 mph N/A   Clear
2:55 PM 81.3 °F 12.6 °F 7% 29.96 in 7.0 mi WSW 10.4 mph - N/A   Clear
3:15 PM 80.4 °F 13.5 °F 8% 29.96 in 10.0 mi WSW 13.8 mph 23.0 mph N/A   Clear
3:35 PM 80.8 °F 14.4 °F 8% 29.95 in 10.0 mi SW 12.7 mph 17.3 mph N/A   Clear
3:55 PM 82.4 °F 16.7 °F 9% 29.94 in 10.0 mi SSW 15.0 mph 23.0 mph N/A   Clear
4:15 PM 82.2 °F 16.0 °F 8% 29.94 in 10.0 mi South 17.3 mph 21.9 mph N/A   Clear
4:35 PM 84.0 °F 15.3 °F 8% 29.93 in 7.0 mi South 15.0 mph 23.0 mph N/A   Clear
4:55 PM 83.5 °F 12.6 °F 7% 29.92 in 10.0 mi SSW 19.6 mph 29.9 mph N/A   Clear
5:15 PM 83.7 °F 11.7 °F 7% 29.92 in 7.0 mi SW 20.7 mph 29.9 mph N/A   Clear
5:35 PM 82.9 °F 7.0 °F 6% 29.92 in 10.0 mi WSW 18.4 mph 32.2 mph N/A   Clear
5:55 PM 82.9 °F 7.0 °F 6% 29.92 in 10.0 mi West 16.1 mph 27.6 mph N/A   Clear
6:15 PM 82.4 °F 8.6 °F 6% 29.91 in 10.0 mi WSW 13.8 mph 26.5 mph N/A   Clear
6:35 PM 81.0 °F 8.2 °F 6% 29.91 in 10.0 mi SW 12.7 mph 24.2 mph N/A   Clear
6:55 PM 80.8 °F 11.3 °F 7% 29.91 in 10.0 mi SW 15.0 mph 19.6 mph N/A   Clear
7:15 PM 79.0 °F 12.7 °F 8% 29.91 in 7.0 mi SW 12.7 mph 20.7 mph N/A   Clear
7:35 PM 77.2 °F 11.5 °F 8% 29.92 in 7.0 mi SW 6.9 mph - N/A   Clear
7:55 PM 76.1 °F 9.0 °F 8% 29.93 in 10.0 mi WSW 8.1 mph - N/A   Clear
8:15 PM 72.5 °F 12.2 °F 10% 29.94 in 10.0 mi South 4.6 mph - N/A   Clear
8:35 PM 72.0 °F 13.1 °F 10% 29.94 in 10.0 mi SSW 5.8 mph - N/A   Clear
8:55 PM 70.2 °F 13.3 °F 11% 29.95 in 10.0 mi Calm Calm - N/A   Clear
9:15 PM 69.8 °F 14.0 °F 12% 29.95 in 10.0 mi Calm Calm - N/A   Clear
9:35 PM 70.9 °F 13.6 °F 11% 29.96 in 7.0 mi Calm Calm - N/A   Clear
9:55 PM 71.8 °F 12.0 °F 10% 29.96 in 10.0 mi Calm Calm - N/A   Clear
10:15 PM 66.6 °F 13.1 °F 13% 29.97 in 10.0 mi NE 9.2 mph - N/A   Clear
10:35 PM 65.1 °F 15.4 °F 15% 29.96 in 10.0 mi NNE 11.5 mph - N/A   Clear
10:55 PM 61.9 °F 18.1 °F 18% 29.96 in 10.0 mi North 12.7 mph - N/A   Clear
11:15 PM 63.0 °F 14.9 °F 15% 29.96 in 10.0 mi NNE 13.8 mph - N/A   Clear
11:35 PM 62.2 °F 18.7 °F 19% 29.96 in 10.0 mi NNE 12.7 mph - N/A   Clear
11:55 PM 60.8 °F 22.6 °F 23% 29.97 in 10.0 mi NNE 10.4 mph - N/A   Clear